Location: Bernadets
(43.3537°N, 0.3167°E)
Time: 07:36:13
(UTC+00:00)

NOAA 6 - Pass Details

Date: 24 October 2021
Orbit: 771 x 787 km, 98.7° (Epoch: 02 December)

Event Time Altitude Azimuth Distance (km) Brightness Sun altitude
Rises 17:27:31 0° 169° (S) 3,263 7.3 -5.5°
Reaches altitude 10° 17:29:50 10° 171° (S) 2,340 6.6 -5.9°
Maximum altitude 17:35:00 75° 257° (WSW) 820 4.4 -6.8°
Drops below altitude 10° 17:40:12 10° 343° (NNW) 2,358 6.6 -7.7°
Sets 17:42:33 0° 345° (NNW) 3,291 7.4 -8.2°
